Regional Weather Roundup
Issued by NWS Goodland, KS

Home | Current Version | Previous Version | Text Only | Print | Product List | Glossary Off
Versions: 1 2 3 4 5 6 7 8 9 10 11 12 13 14 15 16 17 18 19 20 21 22 23 24 25 26 27 28 29 30 31 32 33 34 35 36 37 38 39 40 41 42 43 44 45 46 47 48 49 50

000
ASUS43 KGLD 180808
RWRGLD

GOODLAND FORECAST AREA HOURLY WEATHER ROUNDUP
NATIONAL WEATHER SERVICE GOODLAND KS
200 AM MDT FRI APR 18 2014

...OFFICIAL OBSERVATIONS...

CITY           SKY/WX    TMP DP  RH WIND       PRES   REMARKS
GOODLAND KS    CLEAR     38  35  89 S17       30.12F
HILL CITY KS   CLEAR     39  36  89 S6        30.18F
IMPERIAL NEB   CLEAR     41  37  86 S12       30.08F
MCCOOK NEB     CLEAR     40  37  89 S8        30.14F
AKRON CO       CLEAR     40  34  79 S17G25    30.02F
BURLINGTON CO  CLEAR     37  32  82 S20       30.10F
LIMON CO       CLEAR     32  31  96 SE7       30.09F
$$

...UNOFFICIAL OBSERVATIONS...

CITY           SKY/WX    TMP DP  RH WIND       PRES   REMARKS
COLBY KS       CLEAR     39  39 100 S15       30.14F
GOVE KS          N/A     40  32  73 CALM        N/A
LENORA KS        N/A     40  32  73 S12         N/A
LEOTI KS         N/A     38  32  79 CALM        N/A
NORTON KS      CLEAR     36  34  93 S7        30.15F
OBERLIN KS     FAIR      39  37  93 S10       30.14F
SHARON SPRINGS   N/A     37  35  92 SW16        N/A
ST FRANCIS KS  CLEAR     39  34  81 S15       30.08
TRIBUNE KS     CLEAR     36 N/A N/A S9        30.17F
WAKEENEY KS      N/A     39  35  85 MISG        N/A
TRENTON NEB      N/A     39  32  76 S10         N/A
KIT CARSON CO    N/A     35  32  90 MISG        N/A
WRAY CO        FAIR      41  37  87 SW13      30.06F
$$



USA.gov is the U.S. government's official web portal to all federal, state and local government web resources and services.